Powrót do katalogu

HAWK-12C

AktywnyMilitariaSSO
NORAD 64621·PAYLOAD·🇺🇸 United States

Wystrzelony Jun 26, 2025 z Rocket Lab Launch Complex 1

Loading…

Następne Przeloty (najbliższe 24 godziny)

TLE

ŚwieżeSource: Space-Track

Epoka: Sep 14, 2026, 11:07 UTC

1 64621U 25138A   26257.46351743  .00002828  00000-0  13906-3 0  9995
2 64621  97.4393 258.4480 0013561 184.6072 175.5040 15.18771750 67413

Śledź HAWK-12C w czasie rzeczywistym z AllMySat

Download on the App Store